Find Orbcomm FM115

NORAD ID: 41186 Int'l Des: 2015-081 Owner: ORBC Country: US Constellation: orbcomm operational
LEOCIRCULAR

現在のビュー

3D地球を読み込み中...

Orbcomm FM115について

説明を読み込み中...

次回通過

Passes for default location (London). Set your location on the main map for personalized predictions.

高度履歴

Loading altitude history...

軌道要素

1 41186U 15081H 26150.14191359 .00000512 00000-0 13236-3 0 9998
2 41186 46.9969 188.4269 0001900 249.2192 110.8492 14.63242530558577
Epoch: May 30, 2026 • Age: 12 hours

現在のステータス

高度 683.0 km
速度 7.52 km/s
衛星直下点 12.31°N, 85.37°E
打ち上げ日 Dec 22, 2015
運用期間 10.4 years
タイプ other

技術仕様

分類 Payload
質量 172.00 kg
乾燥質量 158.00 kg
総質量 172.00 kg
長さ 1.00 m
直径 0.50 m
スパン 13.00 m
形状 Box+pan+ant
製造者 SNVL
バスタイプ SN-100A
フェーズステータス In Orbit
所有者/国 ORBC/US

Most Searched